Torax TimeFrame

99 2020-05-30 22:40:06
NameTime LeftWindow Opens
Animated Captain10d 00:472020-05-21 11:40:00
Old World Drake4d 19:142020-05-26 17:13:00
Windstrike The Vile2d 02:252020-05-29 10:02:00
Crolvak, the Fire Master1d 08:412020-05-30 03:46:00
Emperor Neudeus, Controller of the Universe1d 03:522020-05-30 08:35:00
Anvilfist1d 01:472020-05-30 10:40:00
King Ashnar, Lord of the Unliving0d 22:582020-05-30 13:29:00
Jade Dragonite0d 20:242020-05-30 16:03:00
Tylos, The Lord Master0d 18:162020-05-30 18:11:00
Beast of Cards0d 17:192020-05-30 19:08:00
Ormsul the Putrid0d 16:522020-05-30 19:35:00
Gorganus of the Wood0d 15:092020-05-30 21:18:00
Lady Ariella0d 11:192020-05-31 01:08:00
Rotborn, Eater of the Dead0d 08:112020-05-31 04:16:00
Brutalitar, Lord of the Underworld0d 07:522020-05-31 04:35:00
Anguish0d 06:472020-05-31 05:40:00
Melt Bane, The Forbidden Demon Dragon0d 06:462020-05-31 05:41:00
Ancient Magus Tarkin0d 06:342020-05-31 05:53:00
Viserion, the Necrodragon0d 05:282020-05-31 06:59:00
Volgan the Living Ironbark0d 05:112020-05-31 07:16:00
Synge, The Red Dragon0d 05:092020-05-31 07:18:00
Mistress of the Sword0d 04:312020-05-31 07:56:00
Freezebreed, The Frozen Manipulator0d 00:022020-05-31 12:30:00
Gnorb0d 00:242020-05-31 12:52:00
Shadow0d 00:252020-05-31 12:53:00
Sarcrina the Astral Priestess0d 00:452020-05-31 13:13:00
Smoot the Yeti0d 00:522020-05-31 13:20:00
Lacuste of the Swarm0d 00:592020-05-31 13:27:00
Crane0d 02:442020-05-31 15:12:00
Zikkir the Dark Archer0d 03:012020-05-31 15:29:00
Samatha Dark-Soul0d 03:122020-05-31 15:40:00
Balerion, Dragon of Dread0d 04:132020-05-31 16:41:00
Garland, The Lord Keeper0d 06:242020-05-31 18:52:00
Wanhiroeaz the Devourer0d 07:292020-05-31 19:57:00
Lord Varan0d 08:332020-05-31 21:01:00
Threk, King of Lords0d 09:302020-05-31 21:58:00
Vitkros, Hydra of the Deep0d 09:412020-05-31 22:09:00
Numerocure, The Black Messenger of Evil0d 10:092020-05-31 22:37:00
Kro Shuk, Doomslayer0d 10:102020-05-31 22:38:00
Baron Mu, Dark Rider of the Undead0d 12:382020-06-01 01:06:00
Ebliss, Fallen Angel of Despair0d 12:582020-06-01 01:26:00
Tsort0d 14:092020-06-01 02:37:00
Archdevil Yirkon0d 14:332020-06-01 03:01:00
Pinosis0d 16:422020-06-01 05:10:00
Lord Narada0d 16:542020-06-01 05:22:00
Ag Nabak the Abomination0d 17:052020-06-01 05:33:00
Nayark the Mummified Sorcerer0d 17:462020-06-01 06:14:00
Nessam0d 18:542020-06-01 07:22:00
Great Lord Ganeshan0d 19:222020-06-01 07:50:00
Bloodchill the Grizzly0d 20:172020-06-01 08:45:00
Traxodon the Plaguebringer0d 20:492020-06-01 09:17:00
Jorun the Blazing Swordsman0d 21:072020-06-01 09:35:00
Detox0d 21:262020-06-01 09:54:00
Keeper of Nature0d 22:122020-06-01 10:40:00
Akkel the Enflamed Warrior0d 22:332020-06-01 11:01:00
Hyrak, Bringer of Nightmares0d 22:402020-06-01 11:08:00
Rancid, Lord of Thugs0d 22:582020-06-01 11:26:00
The Emerald Assassin1d 02:142020-06-01 14:42:00
Karvaz, Lord of Alsayic1d 03:502020-06-01 16:18:00
Lord Suka1d 06:512020-06-01 19:19:00
Ganja the Stone Golem1d 08:322020-06-01 21:00:00
Jazzmin, Maiden of Vitality1d 11:342020-06-02 00:02:00
Slashbrood, Devourer of the Blackness1d 12:552020-06-02 01:23:00
Dreg nor, Keeper of the Infernal Essence1d 13:042020-06-02 01:32:00
Terrance, Rebel of Rallis1d 13:282020-06-02 01:56:00
Zertan, The Collector1d 17:542020-06-02 06:22:00
Murderface1d 18:392020-06-02 07:07:00
Nar Zhul, Slayer of All1d 19:022020-06-02 07:30:00
Amalgamated Apparition1d 19:542020-06-02 08:22:00
Sigil, Lich of Woe1d 20:152020-06-02 08:43:00
Q-SEC Commander1d 20:172020-06-02 08:45:00
Hackerphage, Protector of the Gateway1d 20:192020-06-02 08:47:00
Esquin, the Kinetic Master1d 23:172020-06-02 11:45:00
Dlanod, the Crazed Chancellor2d 00:032020-06-02 12:31:00
Lord Sibannac2d 02:382020-06-02 15:06:00
Lady Chaos, Queen of the Abyss2d 02:462020-06-02 15:14:00
Murfax, Beast of the Caves2d 05:492020-06-02 18:17:00
Bolkor, the Holy Master2d 07:432020-06-02 20:11:00
Quiver, The Renegade2d 08:082020-06-02 20:36:00
Howldroid, Tormentor of the Pit2d 10:522020-06-02 23:20:00
Nafir, God of Desolation2d 11:232020-06-02 23:51:00
Crantos, Defender of Ultimation2d 13:422020-06-03 02:10:00
Sylvanna TorLai2d 19:302020-06-03 07:58:00
Xynak, the Arcane Master2d 22:472020-06-03 11:15:00
Lord Xordam2d 23:402020-06-03 12:08:00
Felroc, Overseer of Hellfire3d 00:082020-06-03 12:36:00
Straya, the Underworld Ruler3d 03:142020-06-03 15:42:00
Grivvek, Protector of the Brood3d 05:032020-06-03 17:31:00
Skybrine The Inescapable3d 09:202020-06-03 21:48:00
Varsanor, Master of Darkness3d 12:592020-06-04 01:27:00
Dexor, Victor of Veldara3d 18:552020-06-04 07:23:00
Kretok, Descendant of Nature3d 23:592020-06-04 12:27:00
Raiyar, the Shadow Master4d 10:272020-06-04 22:55:00
Gregov, Knight of the Woods4d 13:102020-06-05 01:38:00
Skarthul the Avenged4d 22:312020-06-05 10:59:00
Thanox, Balancer of Chaos5d 22:472020-06-06 11:15:00
Shaik, Servant of Arkron184d 01:082019-11-29 11:19:00
Rook, Hand of Arkron182d 00:022019-12-01 12:25:00
Noxious Slug5d 13:442020-05-25 22:43:00